Location: Ostrava
(49.8330°N, 18.2830°E)
Time: 02:45:53
(UTC+02:00)

Explorer 7 - Visible Passes

Search period start: 25 April 2014 00:00
Search period end: 05 May 2014 00:00
Orbit: 492 x 710 km, 50.3° (Epoch: 24 April)

Date Brightness Start Highest point End Pass type
(mag) Time Alt. Az. Time Alt. Az. Time Alt. Az.
25 Apr 7.8 02:03:11 42° ESE 02:03:11 42° ESE 02:06:31 10° ENE visible
25 Apr 7.1 03:39:53 20° W 03:42:58 84° N 03:47:46 10° E visible
26 Apr 7.0 02:13:31 69° ESE 02:13:31 69° ESE 02:17:43 10° ENE visible
26 Apr 7.1 03:50:12 13° W 03:54:10 85° N 03:58:59 10° E visible
27 Apr 9.4 00:47:08 13° E 00:47:08 13° E 00:47:40 10° E visible
27 Apr 6.9 02:23:49 73° W 02:24:15 90° S 02:28:55 10° E visible
27 Apr 7.1 04:00:51 10° W 04:05:21 88° S 04:10:11 10° ESE visible
28 Apr 9.0 00:57:26 20° E 00:57:26 20° E 00:58:53 10° ENE visible
28 Apr 7.0 02:34:07 45° W 02:35:26 84° N 02:40:06 10° E visible
28 Apr 7.1 04:12:00 10° WNW 04:16:30 74° SSW 04:21:18 10° ESE visible
29 Apr 8.4 01:07:43 29° E 01:07:43 29° E 01:10:03 10° ENE visible
29 Apr 7.0 02:44:24 29° W 02:46:36 84° N 02:51:18 10° E visible
29 Apr 7.2 04:23:09 10° WNW 04:27:35 57° SSW 04:32:18 10° SE visible
30 Apr 7.7 01:18:01 45° E 01:18:01 45° E 01:21:13 10° E visible
30 Apr 6.9 02:54:42 20° W 02:57:45 88° SSW 03:02:28 10° ESE visible
30 Apr 7.6 04:34:19 10° W 04:38:35 41° SSW 04:43:06 10° SE visible
01 May 7.1 01:28:20 69° ENE 01:28:20 69° ENE 01:32:22 10° E visible
01 May 6.9 03:05:02 13° W 03:08:52 74° SSW 03:13:34 10° ESE visible
01 May 8.0 04:45:37 10° W 04:49:31 28° SW 04:53:37 10° SSE visible
02 May 9.4 00:02:03 12° E 00:02:03 12° E 00:02:19 10° ENE visible
02 May 6.9 01:38:45 79° NW 01:38:58 84° N 01:43:32 10° E visible
02 May 7.1 03:15:36 10° WNW 03:19:55 57° SSW 03:24:32 10° SE visible
02 May 8.6 22:24:40 10° SW 22:25:45 17° SSW 22:25:45 17° SSW visible
03 May 9.2 00:12:40 15° E 00:12:40 15° E 00:13:26 10° E visible
03 May 6.8 01:49:23 63° W 01:50:05 88° S 01:54:40 10° ESE visible
03 May 7.4 03:26:45 10° W 03:30:54 41° SSW 03:35:18 10° SE visible
03 May 8.3 20:56:46 10° S 20:59:04 15° SE 21:01:26 10° E visible
03 May 6.8 22:35:25 10° SW 22:39:17 55° SSE 22:40:32 38° E visible
04 May 8.7 00:16:03 10° W 00:24:07 13° E 00:24:34 10° E visible
04 May 6.8 02:00:57 72° SW 02:01:10 74° SSW 02:05:44 10° ESE visible
04 May 7.9 03:38:01 10° W 03:41:48 28° SW 03:45:47 10° SSE visible
04 May 7.8 21:06:40 10° SSW 21:09:49 24° SE 21:13:07 10° E visible
04 May 6.6 22:46:20 10° WSW 22:50:17 73° SSE 22:53:22 18° E visible
